Dallas/Ft Worth, TX

3:12 AM CST on November 20, 2019 (GMT -0600)
Dallas-Fort Worth International

Weather History for KDFW - September, 2019

Change the Weather History Date:

Thursday, September 12, 2019

  Actual Average Record
Temperature  
Mean Temperature 84 °F 79 °F  
Max Temperature 96 °F 90 °F 103 °F (2011)
Min Temperature 73 °F 69 °F 50 °F (1902)
Degree Days  
Heating Degree Days 0 0  
Month to date heating degree days 0 0  
Since 1 July heating degree days 0 0  
Cooling Degree Days 20 14  
Month to date cooling degree days 254 194  
Year to date cooling degree days 2456 2376  
Growing Degree Days 34 (Base 50)    
Moisture  
Dew Point 67 °F    
Average Humidity 61    
Maximum Humidity 87    
Minimum Humidity 35    
Precipitation  
Precipitation 0.00 in 0.09 in 2.66 in (2009)
Month to date precipitation 0.00 1.13  
Year to date precipitation 27.13 25.24  
Sea Level Pressure  
Sea Level Pressure 30.01 in    
Wind  
Wind Speed 9 mph ()    
Max Wind Speed 20 mph    
Max Gust Speed 26 mph    
Visibility 10.0 miles    
Events      
T = Trace of Precipitation, MM = Missing Value Source: Averaged Metar Reports

Daily Weather History Graph

Daily Weather History Graph

Search for Another Location

Airport or City:

Astronomy

Sep. 12, 2019 Rise Set
Actual Time 7:09 AM CDT 7:38 PM CDT
Civil Twilight 6:44 AM CDT 8:03 PM CDT
Nautical Twilight 6:15 AM CDT 8:32 PM CDT
Astronomical Twilight 5:46 AM CDT 9:02 PM CDT
Moon 7:16 PM CDT (9/12) 5:39 AM CDT (9/12)
Length of Visible Light 13h 18m
Length of Day
12h 28m
Waxing Gibbous, 98% of the Moon is Illuminated
Sep 12
Waxing Gibbous
Sep 13
Full
Sep 21
Last Quarter
Sep 28
New
Oct 5
First Quarter

Hourly Weather History & Observations

Time (CDT) Temp. Heat Index Dew Point Humidity Pressure Visibility Wind Dir Wind Speed Gust Speed Precip Events Conditions
12:53 AM 77.0 °F - 68.0 °F 74% 30.00 in 10.0 mi SSW 8.1 mph - N/A   Partly Cloudy
1:53 AM 75.9 °F - 66.9 °F 74% 30.00 in 10.0 mi South 10.4 mph - N/A   Partly Cloudy
2:53 AM 75.0 °F - 68.0 °F 79% 30.00 in 10.0 mi South 10.4 mph - N/A   Scattered Clouds
3:53 AM 75.0 °F - 68.0 °F 79% 29.99 in 10.0 mi South 8.1 mph - N/A   Mostly Cloudy
4:53 AM 73.9 °F - 68.0 °F 82% 29.99 in 10.0 mi South 8.1 mph - N/A   Mostly Cloudy
5:53 AM 73.9 °F - 69.1 °F 85% 30.01 in 10.0 mi South 9.2 mph - N/A   Scattered Clouds
6:53 AM 73.9 °F - 69.1 °F 85% 30.04 in 10.0 mi South 9.2 mph - N/A   Scattered Clouds
7:53 AM 75.0 °F - 69.1 °F 82% 30.05 in 10.0 mi South 9.2 mph - N/A   Partly Cloudy
8:53 AM 78.1 °F - 70.0 °F 76% 30.06 in 10.0 mi South 11.5 mph - N/A   Scattered Clouds
9:53 AM 79.0 °F - 70.0 °F 74% 30.08 in 10.0 mi SSW 11.5 mph - N/A   Mostly Cloudy
10:53 AM 82.0 °F 86.3 °F 71.1 °F 69% 30.08 in 10.0 mi SSW 11.5 mph - N/A   Mostly Cloudy
11:53 AM 86.0 °F 91.5 °F 71.1 °F 61% 30.07 in 10.0 mi South 13.8 mph - N/A   Mostly Cloudy
12:53 PM 90.0 °F 94.5 °F 69.1 °F 50% 30.05 in 10.0 mi South 18.4 mph - N/A   Scattered Clouds
1:53 PM 91.0 °F 94.3 °F 66.9 °F 45% 30.03 in 10.0 mi South 15.0 mph 23.0 mph N/A   Scattered Clouds
2:53 PM 91.9 °F 94.5 °F 66.0 °F 42% 30.01 in 10.0 mi SSW 8.1 mph 19.6 mph N/A   Scattered Clouds
3:53 PM 93.9 °F 96.1 °F 64.9 °F 38% 29.98 in 10.0 mi SSE 10.4 mph 20.7 mph N/A   Scattered Clouds
4:53 PM 95.0 °F 97.0 °F 64.0 °F 36% 29.96 in 10.0 mi SSE 12.7 mph 20.7 mph N/A   Scattered Clouds
5:53 PM 93.9 °F 94.8 °F 62.1 °F 35% 29.94 in 10.0 mi South 11.5 mph - N/A   Partly Cloudy
6:53 PM 91.9 °F 92.9 °F 63.0 °F 38% 29.95 in 10.0 mi SSE 10.4 mph - N/A   Partly Cloudy
7:53 PM 89.1 °F 90.0 °F 63.0 °F 42% 29.97 in 10.0 mi SE 9.2 mph - N/A   Partly Cloudy
8:53 PM 87.1 °F 89.2 °F 66.0 °F 49% 29.99 in 10.0 mi SE 10.4 mph - N/A   Partly Cloudy
9:53 PM 86.0 °F 88.8 °F 66.9 °F 53% 30.02 in 10.0 mi SE 9.2 mph - N/A   Partly Cloudy
10:53 PM 84.9 °F 87.6 °F 66.9 °F 55% 30.04 in 10.0 mi SE 9.2 mph - N/A   Partly Cloudy
11:53 PM 84.9 °F 88.2 °F 68.0 °F 57% 30.04 in 10.0 mi SE 10.4 mph - N/A   Scattered Clouds